Gove Airport

Airport
ICAO code: 
YPGV
IATA Code: 
GOV
Summary
ICAO Region: 
APAC
Territory: 
Location: 
Nhulunbuy, Northern Territory
Serving: 
Nhulunbuy
Elevation: 
205 ft
Coordinates: 
Aerial View: 
12° 16' 28.931" S, 136° 49' 34.172" E
Metar
Observation
YPGV 050500Z AUTO 01006KT 9999 // SCT027 32/24 Q1006
Station
GOVE AIRPORT
Date/Time
2021-12-05 05:00:00
Wind direction
10°
Wind speed
06 kts
Lowest cloud amount
scattered clouds
Temperature
32°C
Dew point
24°C
Humidity
62%
QNH
1006 hPa
Weather condition
n/a

Gove Airport is on the Gove Peninsula in the Northern Territory of Australia. It services the mining town of Nhulunbuy and several Aboriginal communities including Yirrkala.

Runways

Designator Length Width Surface Rops
13/31 2208 45 ASP Yes/Yes
Airport map: 
Aerial View: 

SKYbrary Partners:

Safety knowledge contributed by: